Location: Waco, TX
(31.5480°N, 97.1670°W)
Time: 05:34:35
(UTC-05:00)

ISS - Pass Details

Date: 21 June 2018
Orbit: 402 x 406 km, 51.6° (Epoch: 21 June)

Event Time Altitude Azimuth Distance (km) Brightness Sun altitude
Rises 08:48:52 0° 214° (SSW) 2,309 -0.4 28.1°
Reaches altitude 10° 08:50:58 10° 209° (SSW) 1,453 -1.3 28.5°
Maximum altitude 08:54:08 51° 132° (SE) 517 -2.5 29.2°
Drops below altitude 10° 08:57:19 10° 55° (NE) 1,461 0.2 29.8°
Sets 08:59:26 0° 50° (NE) 2,324 0.9 30.3°
